Content
SEND FEEDBACK

Daily
Averages
Monthly
Summary
French Polynesia

PAPEETE, FRENCH POLYNESIA


Home > Oceania > French Polynesia
Elevation: 7 feet     Latitude: 17 33S     Longitude: 149 36W

WEATHER
 
SELECT A DAY
Number of Records: 207,916;   Date Range: 6/30/96 - 7/11/14
 
SHARE

PRINT THIS DATA

[ ← Previous Day ]
WEATHER ALMANAC - MARCH 29, 2013
[ Next Day → ]
[ °C ]   °F
Weather ElementAverageHighLow
Temperature82.7 °F88 °F (2:00 pm)77 °F (3:09 am)
Dewpoint73.1 °F75.2 °F (12:00 pm)69.8 °F (6:00 am)
Humidity71.9 %83 % (3:09 am)57 % (8:00 am)
Barometer29.91 in29.95 in (8:00 am)29.86 in (1:30 pm)
Wind Speed5 mph17.9 mph (2:00 pm)
Weather ElementAverage
Visibility7.8 mi
Wind DirectionESE (96.1 °)

Weather ElementTotal
Precipitation---
Cooling Degree Days17.5 (Base 65)
Growing Degree Days32.5 (Base 50)
Averaged from 54 records on March 29, 2013
WEATHER CONDITIONS BREAKOUT
WIND DIRECTION BREAKOUT
WEATHER BY HOUR - MARCH 29, 2013
[ °C ]   °F
Local TimeTemperatureDewpointHumidityBarometerVisibilityWind DirectionWind SpeedGust SpeedPrecipitationEventsConditions
12:30 AM78.8 °F71.6 °F78 %29.92 in6.2 miESE (110°)3.5 mphScattered Clouds
1:00 AM78.8 °F71.6 °F78 %29.92 in6.2 miEast (80°)2.3 mphPartly Cloudy
1:30 AM78.8 °F71.6 °F78 %29.92 in6.2 miEast (100°)3.5 mphPartly Cloudy
2:00 AM78.0 °F72.0 °F76 %29.91 in12.0 miEast (100°)3.5 mphScattered Clouds
2:00 AM78.8 °F71.6 °F78 %29.89 in6.2 miEast (100°)3.5 mphPartly Cloudy
2:30 AM78.8 °F71.6 °F78 %29.89 in6.2 miEast (90°)4.6 mphPartly Cloudy
3:09 AM77.0 °F71.6 °F83 %29.89 in6.2 miEast (100°)3.5 mphPartly Cloudy
3:30 AM77.0 °F71.6 °F83 %29.89 in6.2 miEast (90°)3.5 mph
4:00 AM77.0 °F71.6 °F83 %29.89 in6.2 miEast (90°)2.3 mph
4:30 AM77.0 °F71.6 °F83 %29.89 in6.2 miVariable1.2 mph
5:00 AM77.0 °F71.0 °F78 %29.90 in37.0 miCalmClear
5:00 AM77.0 °F71.6 °F83 %29.89 in6.2 miCalm
5:30 AM77.0 °F71.6 °F83 %29.89 in6.2 miSSE (160°)2.3 mph
6:00 AM77.0 °F69.8 °F78 %29.89 in6.2 miSSE (150°)3.5 mphScattered Clouds
6:30 AM77.0 °F71.6 °F83 %29.92 in6.2 miSouth (170°)4.6 mphScattered Clouds
7:00 AM80.6 °F71.6 °F74 %29.92 in6.2 miVariable2.3 mphPartly Cloudy
7:30 AM82.4 °F71.6 °F70 %29.92 in6.2 miVariable2.3 mphPartly Cloudy
8:00 AM83.0 °F70.0 °F57 %29.95 in16.0 miCalmPartly Cloudy
8:00 AM84.2 °F69.8 °F62 %29.95 in6.2 miCalmScattered Clouds
8:30 AM84.2 °F73.4 °F70 %29.95 in6.2 miVariable2.3 mphScattered Clouds
9:00 AM86.0 °F73.4 °F66 %29.95 in6.2 miSW (230°)5.8 mphScattered Clouds
9:30 AM86.0 °F73.4 °F66 %29.95 in6.2 miSW (230°)5.8 mphScattered Clouds
10:00 AM86.0 °F73.4 °F66 %29.95 in6.2 miWest (260°)4.6 mphScattered Clouds
10:30 AM86.0 °F73.4 °F66 %29.92 in6.2 miNW (320°)3.5 mphScattered Clouds
11:00 AM87.0 °F74.0 °F57 %29.93 in16.0 miWSW (250°)3.5 mphScattered Clouds
11:00 AM87.8 °F73.4 °F62 %29.92 in6.2 miWSW (250°)3.5 mphScattered Clouds
11:30 AM87.8 °F73.4 °F62 %29.92 in6.2 miWSW (250°)4.6 mphScattered Clouds
12:00 PM87.8 °F75.2 °F66 %29.89 in6.2 miNE (40°)12.7 mphScattered Clouds
12:30 PM87.8 °F75.2 °F66 %29.89 in6.2 miNE (50°)11.5 mphScattered Clouds
1:00 PM87.8 °F75.2 °F66 %29.89 in6.2 miNE (40°)12.7 mphScattered Clouds
1:30 PM87.8 °F75.2 °F66 %29.86 in6.2 miNE (50°)11.5 mphScattered Clouds
2:00 PM88.0 °F75.0 °F57 %29.88 in16.0 miNE (50°)17.9 mphScattered Clouds
2:00 PM87.8 °F75.2 °F66 %29.86 in6.2 miNE (50°)9.2 mphScattered Clouds
2:30 PM87.8 °F75.2 °F66 %29.86 in6.2 miNE (50°)10.4 mphScattered Clouds
3:00 PM87.8 °F75.2 °F66 %29.86 in6.2 miNE (50°)11.5 mphScattered Clouds
3:30 PM87.8 °F75.2 °F66 %29.86 in6.2 miNE (50°)11.5 mphPartly Cloudy
4:00 PM87.8 °F75.2 °F66 %29.86 in6.2 miNE (40°)11.5 mphScattered Clouds
5:00 PM86.0 °F74.0 °F61 %29.89 in16.0 miNE (50°)9.2 mphScattered Clouds
5:00 PM86.0 °F75.2 °F70 %29.89 in6.2 miNE (50°)9.2 mphScattered Clouds
5:30 PM86.0 °F75.2 °F70 %29.89 in6.2 miNE (50°)6.9 mphScattered Clouds
6:00 PM84.2 °F75.2 °F74 %29.89 in6.2 miNNE (30°)5.8 mphScattered Clouds
6:30 PM84.2 °F73.4 °F70 %29.92 in6.2 miSSW (210°)6.9 mphScattered Clouds
7:00 PM84.2 °F73.4 °F70 %29.92 in6.2 miSouth (190°)6.9 mphPartly Cloudy
7:30 PM82.4 °F73.4 °F74 %29.92 in6.2 miSouth (180°)4.6 mphPartly Cloudy
8:00 PM82.0 °F73.0 °F68 %29.95 in12.0 miSouth (170°)4.6 mphScattered Clouds
8:00 PM82.4 °F73.4 °F74 %29.95 in6.2 miSouth (170°)4.6 mphPartly Cloudy
8:30 PM82.4 °F73.4 °F74 %29.95 in6.2 miVariable2.3 mphPartly Cloudy
9:00 PM80.6 °F73.4 °F79 %29.95 in6.2 miVariable2.3 mphPartly Cloudy
9:30 PM80.6 °F71.6 °F74 %29.95 in6.2 miEast (100°)2.3 mphPartly Cloudy
10:00 PM80.6 °F73.4 °F79 %29.95 in6.2 miVariable2.3 mphPartly Cloudy
10:30 PM80.6 °F73.4 °F79 %29.95 in6.2 miCalmScattered Clouds
11:00 PM80.0 °F73.0 °F73 %29.95 in12.0 miCalmScattered Clouds
11:00 PM80.6 °F73.4 °F79 %29.95 in6.2 miCalmScattered Clouds
11:30 PM78.8 °F73.4 °F83 %29.92 in6.2 miEast (100°)2.3 mphMostly Cloudy
Hourly data recorded from NTAA, located miles away from Papeete, French Polynesia







STORIES FROM OUR PARTNERS